Location: *
(50.5544°N, 2.4192°E)
Time: 12:29:57
(UTC+00:00)

Daily predictions for brighter satellites

Satellite Brightness Start Highest point End
(mag) Time Altitude Azimuth Time Altitude Azimuth Time Altitude Azimuth
Cosmos 304 Rocket 3.8 18:44:13 10° NNW 18:49:02 89° ENE 18:53:49 10° SSE
COSMO-SKYMED 1 4.1 18:45:25 10° N 18:49:33 43° WNW 18:53:38 10° SW
Cosmos 1709 Rocket 4.2 18:43:27 10° N 18:49:33 52° ENE 18:55:31 10° SSE
STARLINK-1232 3.2 18:47:03 10° SW 18:50:03 46° SSE 18:53:04 10° ENE
STARLINK-1217 3.2 18:47:30 10° SW 18:50:30 47° SSE 18:53:32 10° ENE
Cosmos 2084 3.9 18:46:11 10° SW 18:50:39 69° NW 18:55:09 10° NE
SeaSat 1 2.9 18:45:50 10° NNE 18:50:46 70° NW 18:55:40 10° SW
STARLINK-1208 3.2 18:47:55 10° SW 18:50:56 47° SSE 18:53:59 10° ENE
STARLINK-1229 3.2 18:48:23 10° SW 18:51:23 47° SSE 18:54:25 10° ENE
Cosmos 1953 4.2 18:49:50 10° ESE 18:51:28 12° E 18:53:07 10° ENE
STARLINK-1116 4.1 18:47:40 10° WNW 18:51:37 55° SSW 18:55:34 10° SE
STARLINK-1236 4.2 18:47:54 10° SSW 18:51:41 38° SE 18:55:28 10° ENE
STARLINK-1271 3.2 18:48:49 10° SW 18:51:50 48° SSE 18:54:53 10° ENE
STARLINK-1270 3.2 18:49:17 10° SW 18:52:19 48° SSE 18:55:21 10° ENE
STARLINK-1154 3.2 18:49:44 10° SW 18:52:46 48° SSE 18:55:47 10° ENE
STARLINK-1101 3.7 18:48:55 10° WNW 18:53:04 73° NNE 18:57:13 10° E
STARLINK-1197 3.2 18:50:38 10° SW 18:53:39 49° SSE 18:56:42 10° ENE
STARLINK-1189 3.2 18:51:05 10° SW 18:54:07 49° SSE 18:57:08 10° ENE
SL-08 ROCKET BODY 4.5 18:48:15 10° N 18:54:27 84° E 19:00:29 10° S
Cosmos 1269 Rocket 4.4 18:49:47 10° S 18:54:45 44° ESE 18:59:47 10° NE
STARLINK-1187 3.0 18:51:52 10° SW 18:54:57 55° SSE 18:58:02 10° ENE
STARLINK-1188 3.1 18:51:59 10° SW 18:55:01 50° SSE 18:58:03 10° ENE
STARLINK-1198 3.1 18:51:59 10° SW 18:55:01 50° SSE 18:58:04 10° ENE
MONITOR-E 4.4 18:53:02 10° SE 18:55:29 35° ENE 18:57:59 10° N
STARLINK-1235 3.0 18:52:32 10° SW 18:55:38 61° SSE 18:58:46 10° ENE
CZ-4C R/B 3.8 18:50:41 10° W 18:55:45 35° NNW 19:01:47 10° NE
STARLINK-1199 3.1 18:53:54 10° SW 18:56:57 52° SSE 19:00:02 10° ENE
STARLINK-1191 3.1 18:54:21 10° SW 18:57:24 52° SSE 19:00:29 10° ENE
STARLINK-1210 3.1 18:54:48 10° SW 18:57:51 52° SSE 19:00:56 10° ENE
STARLINK-1102 3.7 18:53:53 10° WNW 18:58:02 75° NNE 19:02:12 10° E
STARLINK-1221 3.1 18:55:14 10° SW 18:58:18 53° SSE 19:01:24 10° ENE
STARLINK-1219 3.1 18:55:42 10° SW 18:58:46 53° SSE 19:01:51 10° ENE
STARLINK-1222 3.1 18:56:09 10° SW 18:59:13 54° SSE 19:02:18 10° ENE
ISS -3.7 18:55:53 10° W 18:59:15 76° N 19:02:37 10° E
STARLINK-1211 3.1 18:56:36 10° SW 18:59:39 54° SSE 19:02:45 10° ENE
STARLINK-1214 3.1 18:57:02 10° SW 19:00:07 54° SSE 19:03:12 10° ENE
YAOGAN 1 4.3 18:56:26 10° SSW 19:00:26 36° W 19:04:28 10° NNW
STARLINK-1245 3.0 18:57:31 10° SW 19:00:34 55° SSE 19:03:38 10° ENE
Cosmos 2297 3.7 18:54:57 10° NNW 19:00:40 81° ENE 19:06:23 10° SSE
STARLINK-1094 4.3 18:56:56 10° WNW 19:00:51 49° SSW 19:04:45 10° SE
STARLINK-1238 3.0 18:57:54 10° SW 19:00:58 55° SSE 19:04:04 10° ENE
STARLINK-1269 4.0 18:57:35 10° SW 19:01:27 43° SSE 19:05:20 10° ENE
STARLINK-1205 3.0 18:58:49 10° SW 19:01:53 56° SSE 19:04:57 10° ENE
BREEZE-M DEB (TANK) 4.3 18:51:57 10° W 19:01:55 84° S 19:05:19 10° E
STARLINK-1204 3.0 18:59:18 10° SW 19:02:21 56° SSE 19:05:26 10° ENE
Cosmos 1455 Rocket 3.0 18:58:24 10° S 19:02:41 63° E 19:07:01 10° NNE
Cosmos 2084 Rocket 4.1 18:58:24 10° NW 19:02:43 45° NE 19:06:58 10° ESE
STARLINK-1111 3.7 18:58:53 10° WNW 19:03:02 78° NNE 19:07:06 11° ESE
STARLINK-1117 4.4 19:01:48 10° WNW 19:05:41 46° SSW 19:09:34 10° SE
STARLINK-1200 3.9 19:02:20 10° SW 19:06:15 46° SSE 19:10:10 10° ENE
S3M 4.1 19:00:18 10° S 19:06:41 89° ESE 19:13:08 10° N
Cosmos 2237 Rocket 2.4 19:01:30 10° SSW 19:07:07 79° WNW 19:12:49 10° NNE
Cosmos 1892 Rocket 4.1 19:03:16 10° NNW 19:07:44 65° W 19:12:10 10° S
STARLINK-1073 3.7 19:03:52 10° WNW 19:08:02 81° NNE 19:11:53 12° ESE
CZ-2C R/B 3.8 19:04:21 10° NE 19:08:09 20° E 19:11:55 10° SE
Cosmos 1626 Rocket 3.8 19:04:13 10° N 19:08:31 49° ENE 19:12:46 10° SSE
STARLINK-1078 4.4 19:06:15 10° WNW 19:10:07 43° SSW 19:13:58 10° SE
NOSS 2-1 (C) 4.1 19:06:49 10° WSW 19:10:09 49° NW 19:13:57 10° NE
Cosmos 1805 3.7 19:07:00 10° SSW 19:10:54 67° WNW 19:14:48 10° N
STARLINK-1192 3.9 19:07:03 10° SW 19:10:59 49° SSE 19:14:56 10° ENE
Cosmos 2278 Rocket 4.2 19:06:30 10° NW 19:11:23 31° WSW 19:16:16 10° SSW
Meteor 2-5 Rocket 4.4 19:06:27 10° NNW 19:12:02 59° W 19:17:29 10° S
STARLINK-1121 3.6 19:08:50 10° WNW 19:13:00 83° NNE 19:16:39 13° ESE
NOSS 2-1 (D) 4.2 19:11:04 10° WSW 19:14:22 45° NW 19:18:09 10° NE
Cosmos 292 Rocket 4.5 19:10:01 10° NNW 19:14:29 37° ENE 19:18:32 12° ESE
STARLINK-1244 3.8 19:11:55 10° SW 19:15:53 52° SSE 19:19:52 10° ENE
Cosmos 1602 Rocket 3.9 19:12:10 10° N 19:16:31 47° ENE 19:20:48 10° SSE
ARGOS 3.1 19:11:27 10° SSE 19:16:51 77° ENE 19:22:15 10° NNW
STARLINK-1106 3.6 19:13:48 10° WNW 19:17:58 86° NNE 19:21:25 15° ESE
Okean 1-7 Rocket 4.3 19:15:26 10° NNW 19:19:45 57° W 19:24:02 10° S
STARLINK-1138 3.7 19:16:29 10° SW 19:20:29 55° SSE 19:24:30 10° ENE
STARLINK-1234 2.7 19:18:24 10° WSW 19:21:22 88° SE 19:24:04 12° ENE
MOS 1 Rocket 4.5 19:18:11 10° NNE 19:22:40 28° E 19:27:13 10° SSE
STARLINK-1112 3.6 19:18:49 10° WNW 19:22:58 90° N 19:26:14 16° ESE
Cosmos 494 Rocket 4.1 19:17:55 10° SSW 19:23:05 84° WNW 19:28:19 10° NNE
Meteor 1-24 Rocket 4.2 19:17:49 10° NNW 19:23:19 63° W 19:28:36 10° S
USA 186 2.0 19:20:36 10° S 19:24:03 80° WSW 19:27:25 10° NNW
STARLINK-1143 3.7 19:21:21 10° SW 19:25:22 58° SSE 19:29:16 11° ENE
MetOp-A 4.3 19:22:19 10° SE 19:27:33 57° ENE 19:32:49 10° N
STARLINK-1128 3.6 19:23:47 10° WNW 19:27:57 87° SSW 19:31:01 18° ESE
CZ-2C R/B 3.0 19:24:14 10° SSE 19:29:16 81° WSW 19:34:08 10° NNW
Cosmos 1544 Rocket 3.5 19:25:52 10° S 19:30:15 89° ESE 19:34:45 10° N
Cosmos 1437 4.1 19:28:27 10° NNE 19:30:46 20° ENE 19:31:24 18° E
Cosmos 1470 2.7 19:28:28 10° S 19:32:16 59° E 19:36:08 10° NNE
STARLINK-1113 3.6 19:28:46 10° WNW 19:32:55 84° SSW 19:35:47 19° ESE
STARLINK-1241 3.5 19:29:39 10° SW 19:33:39 64° SSE 19:37:13 13° ENE
Cosmos 1825 Rocket 4.4 19:31:31 10° N 19:35:30 31° ENE 19:37:53 19° ESE
SPOT 3 Rocket 3.5 19:30:48 10° SSE 19:36:00 72° ENE 19:41:13 10° NNW
IRIDIUM 103 4.5 19:31:15 10° N 19:36:24 53° E 19:41:29 10° SSE
STARLINK-1119 3.6 19:33:45 10° WNW 19:37:54 80° SSW 19:40:34 21° ESE
STARLINK-1239 3.5 19:34:33 10° WSW 19:38:35 68° SSE 19:41:56 14° ENE
Cosmos 2369 Rocket 2.4 19:33:24 10° NNW 19:39:03 57° NE 19:43:14 18° SE
SJ-6B 3.2 19:38:05 10° S 19:42:09 70° WSW 19:46:18 10° NNW
STARLINK-1114 3.6 19:38:46 10° WNW 19:42:55 76° SSW 19:45:24 23° ESE
Cosmos 1733 4.5 19:39:39 10° SSW 19:43:16 43° WNW 19:46:55 10° N
STARLINK-1240 3.5 19:39:16 10° WSW 19:43:17 72° SSE 19:46:29 16° ENE
Cosmos 1726 3.1 19:42:57 23° ESE 19:44:05 27° E 19:47:19 10° NNE
Aureole 2 Rocket 2.7 19:40:53 10° NNW 19:44:18 49° ENE 19:45:57 26° SE
Ariane Rocket 4.1 19:40:27 10° S 19:45:18 45° W 19:50:11 10° NNW
Cosmos 1758 Rocket 3.9 19:41:10 10° N 19:45:22 44° ENE 19:47:54 21° SE
Cosmos 1758 3.3 19:42:09 10° S 19:46:15 78° E 19:50:22 10° NNE
STARLINK-1130 (DARKSAT) 3.7 19:43:44 10° WNW 19:47:52 72° SSW 19:50:10 25° SE
STARLINK-1216 3.5 19:43:59 10° WSW 19:48:02 75° SSE 19:51:02 17° ENE
CZ-2C R/B 3.7 19:43:49 10° NNE 19:48:35 64° ESE 19:53:15 10° S
ATLAS CENTAUR R/B 4.1 19:48:04 10° NW 19:50:05 13° NNW 19:52:03 10° NNE
STARLINK-1209 3.0 19:48:24 10° W 19:51:20 66° NNW 19:52:50 25° ENE
Cosmos 1953 Rocket 4.4 19:47:47 10° N 19:51:48 32° ENE 19:53:22 25° ESE
STARLINK-1237 3.5 19:48:45 10° WSW 19:52:48 79° SSE 19:55:38 19° ENE
STARLINK-1084 3.7 19:48:42 10° WNW 19:52:50 69° SSW 19:54:56 27° SE
STARLINK-1228 3.0 19:50:37 10° W 19:53:29 64° NNW 19:54:50 27° ENE
Cosmos 2184 Rocket 4.1 19:48:09 10° N 19:54:27 62° ENE 19:59:37 15° SSE
IRIDIUM 106 4.2 19:49:28 10° N 19:54:43 75° E 19:59:56 10° S
Terra 3.8 19:53:53 13° ENE 19:55:06 14° NE 19:57:29 10° NNE
STARLINK-1202 3.5 19:53:29 10° WSW 19:57:33 83° SSE 20:00:11 21° ENE
STARLINK-1098 3.8 19:53:42 10° WNW 19:57:49 65° SSW 19:59:43 30° SE
Spot 2 Rocket 4.1 19:55:41 24° ESE 19:58:11 40° ENE 20:02:56 10° N
Cosmos 1606 Rocket 4.3 19:59:07 28° ESE 20:00:20 33° E 20:04:19 10° NNE
Cosmos 1943 Rocket 2.2 19:54:58 10° NNW 20:00:31 85° WSW 20:04:35 19° SSE
Meteor 1-21 Rocket 4.1 19:55:25 10° NNW 20:01:02 88° ENE 20:06:08 12° SSE
ERBS 3.9 19:58:50 10° W 20:01:55 32° NNW 20:04:36 12° NE
STARLINK-1123 3.8 19:58:40 10° WNW 20:02:46 61° SSW 20:04:30 32° SE
Cosmos 1943 3.9 20:01:04 18° SSE 20:04:23 31° ESE 20:09:19 10° NE
STARLINK-67 3.1 20:02:12 10° W 20:04:44 49° N 20:05:16 40° NE
STARLINK-1246 3.5 20:00:40 10° WSW 20:04:46 88° SSE 20:07:11 24° ENE
SL-8 R/B 3.8 20:00:45 10° W 20:05:29 64° S 20:07:34 32° ESE
Meteor 2-10 4.2 20:01:29 10° S 20:06:41 55° E 20:12:07 10° NNE
STARLINK-1201 3.2 20:04:09 10° W 20:07:24 69° NNW 20:08:41 33° ENE
STARLINK-1097 3.9 20:03:39 10° WNW 20:07:44 58° SSW 20:09:16 34° SE
Cosmos 1626 4.3 20:04:47 10° NNW 20:07:54 26° W 20:11:00 10° SSW
Resurs 1-3 3.7 20:05:32 15° S 20:09:09 74° WSW 20:13:34 10° NNW
ATLAS 2AS CENTAUR R/B 3.3 20:02:24 10° NW 20:10:03 54° NE 20:14:22 25° ESE
STARLINK-1224 3.5 20:07:47 10° WSW 20:11:52 87° NNW 20:13:57 28° ENE
STARLINK-1099 4.0 20:08:39 10° WNW 20:12:42 54° SSW 20:14:04 36° SSE
STARLINK-1203 3.5 20:09:10 10° WSW 20:13:09 83° NNW 20:15:06 29° ENE
Cosmos 2154 Rocket 4.1 20:09:15 10° N 20:15:33 58° ENE 20:18:59 27° SE
USA 234 3.2 20:09:14 10° ENE 20:15:46 66° SE 20:22:16 10° SW
H-2A R/B 3.8 20:11:21 10° SSW 20:16:03 32° W 20:20:41 10° NNW
STARLINK-1225 3.5 20:12:22 10° WSW 20:16:28 85° NNW 20:18:23 30° ENE
USA 245 4.4 20:15:17 32° SE 20:17:23 52° ENE 20:23:09 10° N
STARLINK-1104 4.0 20:13:38 10° WNW 20:17:40 51° SSW 20:18:51 38° SSE
DMSP B5D2-2 4.0 20:12:52 10° NNE 20:18:07 83° ESE 20:23:20 10° SSW
Aureole 3 3.8 20:14:01 10° SSW 20:18:09 77° WNW 20:23:32 10° N
Resurs 01 Rocket 1.6 20:16:28 25° S 20:19:03 82° WSW 20:23:30 10° NNW
Cosmos 1328 3.9 20:15:43 10° N 20:19:41 56° ENE 20:20:24 48° ESE
STARLINK-1233 3.3 20:17:18 10° W 20:20:26 61° N 20:21:02 48° NE
STARLINK-1212 3.3 20:17:47 10° W 20:20:53 61° NNW 20:21:27 49° NE
Cosmos 921 Rocket 4.4 20:17:45 10° N 20:21:05 22° NE 20:21:20 22° ENE
STARLINK-1230 3.6 20:17:08 10° WSW 20:21:13 82° NNW 20:22:57 33° ENE
STARLINK-1105 3.3 20:18:12 10° W 20:21:20 61° N 20:21:53 49° NE
SL-16 R/B 2.8 20:16:07 10° SW 20:21:42 58° NW 20:27:19 10° NNE
STARLINK-1206 3.2 20:18:43 10° W 20:21:48 60° N 20:22:19 50° NE
STARLINK-1247 3.3 20:19:09 10° W 20:22:14 60° NNW 20:22:44 51° NE
STARLINK-1144 4.1 20:18:38 10° WNW 20:22:38 48° SSW 20:23:38 39° S
STARLINK-1227 3.3 20:19:34 10° W 20:22:41 60° N 20:23:12 50° NE
Abrixas rocket 4.4 20:20:09 10° SW 20:20:46 14° SSW 20:20:46 14° SSW
STARLINK-1218 3.3 20:20:04 10° W 20:23:10 60° N 20:23:36 52° NNE
Cosmos 2228 3.1 20:22:40 45° SE 20:23:23 51° E 20:27:34 10° NNE
STARLINK-1226 3.3 20:20:30 10° W 20:23:36 59° N 20:24:03 52° NNE
STARLINK-1254 3.3 20:20:56 10° W 20:24:02 60° N 20:24:30 52° NNE
STARLINK-1215 3.3 20:21:25 10° W 20:24:30 59° N 20:24:54 53° NNE
STARLINK-1231 3.3 20:21:51 10° W 20:24:57 59° N 20:25:19 53° NNE
STARLINK-1232 3.2 20:22:46 10° W 20:25:52 59° N 20:26:12 54° NNE
STARLINK-1243 3.6 20:21:58 10° WSW 20:26:03 79° NNW 20:27:36 37° ENE
STARLINK-1217 3.2 20:23:13 10° W 20:26:19 58° N 20:26:38 54° NNE
STARLINK-1208 3.3 20:23:38 10° W 20:26:45 59° N 20:27:05 54° NNE
STARLINK-1229 3.3 20:24:07 10° W 20:27:12 58° N 20:27:29 55° NNE
Cosmos 1953 2.5 20:23:20 10° SSW 20:27:17 70° W 20:31:17 10° N
STARLINK-1103 4.2 20:23:37 10° WNW 20:27:35 45° SSW 20:28:25 39° S
STARLINK-1271 3.3 20:24:34 10° W 20:27:40 58° N 20:27:56 55° NNE
STARLINK-1270 3.3 20:25:02 10° W 20:28:07 58° N 20:28:22 55° NNE
STARLINK-1154 3.3 20:25:29 10° W 20:28:35 58° N 20:28:48 55° NNE
STARLINK-1197 3.3 20:26:24 10° W 20:29:29 57° N 20:29:40 56° N
STARLINK-1189 3.3 20:26:51 10° W 20:29:56 57° N 20:30:06 56° N
Cosmos 1992 Rocket 4.3 20:25:03 10° NNW 20:30:13 63° WSW 20:33:07 26° S
STARLINK-1187 3.3 20:27:42 10° W 20:30:48 56° N 20:30:59 54° N
STARLINK-1198 3.3 20:27:45 10° W 20:30:50 57° N 20:30:58 56° N
STARLINK-1236 3.6 20:26:46 10° WSW 20:30:50 76° NNW 20:32:12 41° ENE
STARLINK-1188 3.3 20:27:45 10° W 20:30:50 57° N 20:30:59 56° N
STARLINK-1235 3.4 20:28:25 10° W 20:31:32 54° N 20:31:42 53° N
STARLINK-1101 4.3 20:28:37 10° WNW 20:32:33 42° SSW 20:33:11 39° S
STARLINK-1199 3.3 20:29:41 10° W 20:32:48 57° N 20:32:54 56° N
STARLINK-1191 3.3 20:30:08 10° W 20:33:15 57° N 20:33:19 56° N
STARLINK-1210 3.3 20:30:36 10° W 20:33:42 57° N 20:33:46 56° N
STARLINK-1221 3.4 20:31:02 10° W 20:34:09 56° N 20:34:12 56° N
Nadezhda 1 Rocket 4.0 20:29:47 20° S 20:34:18 66° E 20:40:38 10° NNE
STARLINK-1219 3.4 20:31:30 10° W 20:34:37 56° N 20:34:38 56° N
STARLINK-1222 3.4 20:31:58 10° W 20:35:04 56° N 20:35:04 56° N
STARLINK-1211 3.4 20:32:24 10° W 20:35:30 56° N 20:35:30 56° N
STARLINK-1214 3.4 20:32:52 10° W 20:35:55 56° N 20:35:55 56° N
ISS -2.9 20:32:46 10° W 20:35:39 42° SW 20:35:39 42° SW
STARLINK-1245 3.4 20:33:20 10° W 20:36:20 55° NNW 20:36:20 55° NNW
STARLINK-1238 3.4 20:33:43 10° W 20:36:46 56° NNW 20:36:46 56° NNW
STARLINK-1102 4.4 20:33:36 10° WNW 20:37:29 39° SW 20:37:58 38° SSW
STARLINK-1205 3.5 20:34:39 10° W 20:37:37 55° NNW 20:37:37 55° NNW
STARLINK-1204 3.5 20:35:08 10° W 20:38:03 54° NNW 20:38:03 54° NNW
STARLINK-1269 3.7 20:36:41 10° W 20:40:46 72° NNW 20:41:43 49° NE
Cosmos 2058 Rocket 3.6 20:42:37 43° ENE 20:42:37 43° ENE 20:46:23 10° NNE
STARLINK-1111 4.5 20:38:37 10° WNW 20:42:27 37° SW 20:42:45 36° SSW
MetOp-B 4.1 20:40:10 35° SSE 20:42:32 84° WSW 20:47:57 10° NNW
Cosmos 1703 3.3 20:39:20 10° NNW 20:43:18 79° W 20:43:49 64° SSW
Cosmos 1603 3.5 20:37:48 10° SSW 20:43:24 72° ESE 20:49:01 10° NNE
SPOT 5 3.3 20:44:26 38° ENE 20:44:26 38° ENE 20:48:22 10° N
Cosmos 2251 Rocket 3.6 20:38:58 10° SSW 20:44:21 83° WNW 20:49:46 10° NNE
Meteor 1-16 Rocket 4.0 20:40:19 15° SSW 20:44:50 87° W 20:50:22 10° NNE
STARLINK-1200 3.7 20:41:31 10° W 20:45:36 70° NNW 20:46:21 54° NE
CZ-4C R/B 4.3 20:40:59 10° NW 20:46:09 27° N 20:52:06 10° ENE
CZ-2C R/B 2.8 20:43:48 10° N 20:48:58 67° WNW 20:54:05 10° SSW
IGS 5A 3.3 20:49:02 71° E 20:49:05 71° ENE 20:53:14 10° N
ERS-1 Rocket 3.1 20:48:38 51° E 20:49:15 54° ENE 20:54:10 10° N
STARLINK-1192 3.8 20:46:18 10° W 20:50:22 68° NNW 20:50:56 59° NE
Landsat 7 3.7 20:49:40 61° SE 20:50:25 77° ENE 20:55:12 10° NNW
STARLINK-1244 3.8 20:51:14 10° W 20:55:19 67° N 20:55:40 63° NNE
STARLINK-1138 3.8 20:55:48 10° W 20:59:52 66° N 21:00:03 65° N
Cosmos 1656 Rocket 3.7 20:55:00 10° NNW 21:00:42 79° WSW 21:02:03 53° S
MOS 1 Rocket 4.4 20:56:05 10° N 21:01:06 52° WNW 21:06:18 10° SW
Meteor 1-11 4.3 20:56:46 10° NNW 21:02:36 77° W 21:04:29 44° S
STARLINK-1143 3.9 21:00:43 10° W 21:04:46 64° N 21:04:46 64° N
Aureole 1 Rocket 4.3 21:01:51 34° S 21:05:13 60° ESE 21:11:35 10° NNE
CARTOSAT-1 3.8 21:07:29 58° NE 21:07:29 58° NE 21:11:16 10° N
Cosmos 1726 Rocket 3.9 21:10:43 54° WSW 21:11:25 63° WNW 21:15:50 10° N
STARLINK-1241 4.1 21:08:57 10° W 21:12:34 58° NW 21:12:34 58° NW
COSMOS 2455 3.1 21:08:15 10° NNW 21:14:12 56° NE 21:15:09 51° E
STARLINK-1239 4.2 21:13:58 10° W 21:17:22 53° NW 21:17:22 53° NW
Cosmos 1726 4.2 21:17:22 18° WSW 21:19:16 26° WNW 21:22:30 10° NNW
In-Cosmos 22 Rocket 4.4 21:14:18 10° N 21:20:02 56° ENE 21:20:10 56° ENE
Cosmos 2341 Rocket 4.0 21:14:51 10° N 21:21:15 86° W 21:22:43 57° S
Cosmos 1461 3.6 21:17:01 10° NW 21:20:56 53° NNE 21:20:56 53° NNE
STARLINK-1240 4.4 21:18:43 10° W 21:21:55 48° NW 21:21:55 48° NW
Cosmos 2369 Rocket 3.7 21:17:56 10° NW 21:22:46 29° WSW 21:25:03 22° SW
Cosmos 1908 4.3 21:24:02 43° WNW 21:24:02 43° WNW 21:27:30 10° N
NOSS 3-4 (A) 3.7 21:21:40 10° NW 21:28:35 81° SW 21:30:09 59° SSE
NOSS 3-4 (C) 3.7 21:21:46 10° NW 21:28:41 82° SW 21:30:14 59° SSE
ATLAS CENTAUR R/B 3.9 21:28:45 10° NNW 21:30:42 13° NNE 21:31:52 12° NNE
Terra 2.1 21:32:45 64° N 21:32:45 64° N 21:36:51 10° NNW
Meteor 2-12 Rocket 4.5 21:30:32 10° N 21:36:34 61° ENE 21:36:34 61° ENE
NOSS 3-3 (A) 4.2 21:33:19 10° SW 21:39:18 71° NW 21:46:10 10° NE
NOSS 3-3 (C) 4.2 21:33:25 10° SW 21:39:24 71° NW 21:46:16 10° NE
SPOT 1/Viking Rocket 4.2 21:41:28 45° WSW 21:42:00 47° W 21:47:03 10° NNW
Cosmos 1943 Rocket 4.5 21:40:19 10° WNW 21:43:25 15° W 21:46:08 11° SW
Cosmos 1943 3.8 21:42:38 10° SW 21:48:10 54° NW 21:53:47 10° NNE
Cosmos 2218 Rocket 3.8 21:42:07 10° N 21:48:19 87° W 21:48:36 82° SSW
Cosmos 1340 Rocket 4.4 21:51:02 34° NNW 21:51:02 34° NNW 21:53:48 10° N
Cosmos 1140 Rocket 4.3 21:56:03 42° NNE 21:56:03 42° NNE 21:59:27 10° NNE
Resurs 01 Rocket 4.5 21:55:17 10° W 21:56:17 11° W 21:57:17 10° WNW
USA 234 3.6 21:52:21 10° ENE 21:58:48 63° NNW 22:05:15 10° W
Cosmos 2181 Rocket 4.0 22:00:16 73° WSW 22:00:41 77° W 22:06:57 10° N
ATLAS 2AS CENTAUR R/B 3.1 21:53:47 10° NW 22:01:09 54° WSW 22:01:48 52° SW
Cosmos 407 Rocket 4.1 22:06:47 54° NNW 22:06:47 54° NNW 22:11:09 10° NNE
Cosmos 1697 Rocket 3.9 22:05:15 10° NNW 22:10:12 33° NE 22:10:12 33° NE
Mayak 1.0 22:14:11 10° NNE 22:15:32 20° NNE 22:15:32 20° NNE
Cosmos 1980 Rocket 3.6 22:30:49 10° NNW 22:35:28 30° NE 22:35:28 30° NE
CZ-4C R/B 3.7 22:30:08 10° NW 22:36:25 41° NNE 22:38:44 33° ENE
Nadezhda 3 Rocket 4.4 22:38:52 57° NNE 22:38:52 57° NNE 22:43:52 10° NNE
COSMOS 2455 4.2 22:54:32 10° NW 22:58:18 30° W 22:58:18 30° W
Terra 4.3 23:11:38 14° WNW 23:11:38 14° WNW 23:13:16 10° NW
ATLAS CENTAUR R/B 4.2 23:07:13 10° NNW 23:08:02 15° NNW 23:08:02 15° NNW
ATLAS 5 CENTAUR R/B 4.1 23:20:05 19° NNE 23:20:05 19° NNE 23:21:36 10° NE
Cosmos 1833 Rocket 4.4 23:28:31 25° NE 23:28:31 25° NE 23:30:57 10° NE
USA 234 3.9 23:35:05 10° ENE 23:41:22 51° N 23:47:39 10° WNW
Mayak 1.7 23:51:12 10° NNW 23:52:06 12° NW 23:52:06 12° NW
SL-16 R/B 4.1 23:52:44 25° ENE 23:53:48 26° NE 23:58:50 10° N
